TimeEST,TemperatureF,Dew PointF,Humidity,Sea Level PressureIn,VisibilityMPH,Wind Direction,Wind SpeedMPH,Gust SpeedMPH,PrecipitationIn,Events,Conditions,WindDirDegrees,DateUTC
12:53 AM,71.1,66.9,87,30.06,10.0,North,6.9,-,N/A,,Clear,350,2013-02-09 05:53:00
1:53 AM,72.0,62.1,71,30.06,10.0,North,5.8,-,N/A,,Clear,350,2013-02-09 06:53:00
2:53 AM,71.1,62.1,73,30.05,10.0,North,8.1,-,N/A,,Clear,350,2013-02-09 07:53:00
3:53 AM,70.0,64.0,81,30.05,10.0,North,12.7,-,N/A,,Clear,360,2013-02-09 08:53:00
4:53 AM,69.1,64.9,87,30.05,10.0,North,9.2,-,N/A,,Clear,360,2013-02-09 09:53:00
5:53 AM,69.1,64.9,87,30.06,10.0,North,10.4,-,N/A,,Clear,360,2013-02-09 10:53:00
6:53 AM,69.1,62.1,78,30.09,10.0,North,10.4,-,N/A,,Clear,10,2013-02-09 11:53:00
7:53 AM,70.0,63.0,78,30.10,10.0,NNE,10.4,-,N/A,,Clear,20,2013-02-09 12:53:00
8:53 AM,72.0,64.0,76,30.11,10.0,NNE,9.2,-,N/A,,Clear,20,2013-02-09 13:53:00
9:53 AM,73.9,64.9,73,30.12,10.0,NE,8.1,-,N/A,,Partly Cloudy,50,2013-02-09 14:53:00
10:53 AM,75.0,66.0,73,30.13,10.0,NNE,9.2,-,N/A,,Clear,30,2013-02-09 15:53:00
11:53 AM,75.9,68.0,76,30.13,10.0,North,6.9,-,N/A,,Scattered Clouds,10,2013-02-09 16:53:00
12:53 PM,75.9,68.0,76,30.12,10.0,North,8.1,-,N/A,,Overcast,360,2013-02-09 17:53:00
1:53 PM,77.0,69.1,76,30.10,10.0,North,6.9,-,N/A,,Partly Cloudy,360,2013-02-09 18:53:00
2:53 PM,78.1,70.0,76,30.09,10.0,NE,6.9,-,N/A,,Scattered Clouds,40,2013-02-09 19:53:00
3:24 PM,77.0,69.8,78,30.09,10.0,NE,5.8,-,N/A,,Mostly Cloudy,40,2013-02-09 20:24:00
3:53 PM,77.0,70.0,79,30.08,10.0,East,13.8,20.7,N/A,,Mostly Cloudy,90,2013-02-09 20:53:00
4:53 PM,77.0,69.1,76,30.09,10.0,East,12.7,-,N/A,,Clear,100,2013-02-09 21:53:00
5:53 PM,75.9,69.1,79,30.10,10.0,East,11.5,-,N/A,,Scattered Clouds,90,2013-02-09 22:53:00
6:39 PM,75.2,68.0,78,30.10,10.0,East,10.4,-,N/A,,Mostly Cloudy,90,2013-02-09 23:39:00
6:53 PM,73.9,68.0,82,30.10,10.0,East,12.7,-,N/A,,Mostly Cloudy,90,2013-02-09 23:53:00
7:05 PM,73.4,68.0,83,30.11,10.0,East,10.4,-,N/A,,Scattered Clouds,90,2013-02-10 00:05:00
7:53 PM,73.9,66.9,79,30.12,10.0,East,13.8,19.6,N/A,,Clear,90,2013-02-10 00:53:00
8:53 PM,73.9,66.9,79,30.13,10.0,East,13.8,20.7,N/A,,Clear,100,2013-02-10 01:53:00
9:53 PM,73.9,66.9,79,30.14,10.0,East,16.1,-,N/A,,Clear,100,2013-02-10 02:53:00
10:53 PM,73.9,66.0,76,30.14,10.0,East,12.7,-,N/A,,Scattered Clouds,90,2013-02-10 03:53:00
11:53 PM,73.9,66.0,76,30.14,10.0,East,13.8,-,N/A,,Mostly Cloudy,100,2013-02-10 04:53:00